Weather History for La Mesa, Honduras

Change the Weather History Date:

Monday, February 17, 2014

  Actual Average Record
Temperature  
Mean Temperature 78 °F -  
Max Temperature 84 °F 86 °F 104 °F (1998)
Min Temperature 71 °F 69 °F 64 °F (2013)
Cooling Degree Days 12    
Growing Degree Days 28 (Base 50)    
Moisture  
Dew Point 74 °F    
Average Humidity 93    
Maximum Humidity 100    
Minimum Humidity 66    
Precipitation  
Precipitation 0.01 in 0.06 in - ()
Sea Level Pressure  
Sea Level Pressure 30.01 in    
Wind  
Wind Speed 5 mph ()    
Max Wind Speed 16 mph    
Max Gust Speed -    
Visibility 6.3 miles    
Events Rain    
Averages and records for this station are not official NWS values.
T = Trace of Precipitation, MM = Missing Value Source: Averaged Metar Reports

Daily Weather History Graph

Daily Weather History Graph

Search for Another Location

Airport:

Trip Planner

Search our weather history database for the weather conditions in past years. The results will help you decide how hot, cold, wet, or windy it might be!

Date:

Astronomy

Feb. 17, 2014 Rise Set
Actual Time 6:15 AM CST 5:56 PM CST
Civil Twilight 5:53 AM CST 6:17 PM CST
Nautical Twilight 5:28 AM CST 6:43 PM CST
Astronomical Twilight 5:03 AM CST 7:08 PM CST
Moon 8:15 PM CST (2/17) 7:46 AM CST (2/17)
Length of Visible Light 12h 24m
Length of Day
11h 40m
Waning Gibbous, 93% of the Moon is Illuminated
Feb 17
Waning Gibbous
Feb 22
Last Quarter
Mar 1
New
Mar 8
First Quarter
Mar 16
Full

Hourly Weather History & Observations

Time (CST) Temp. Heat Index Dew Point Humidity Pressure Visibility Wind Dir Wind Speed Gust Speed Precip Events Conditions
12:00 AM 73 °F - 73 °F 99% 30.05 in 5 mi North 4.6 mph - - Rain Light Drizzle
12:00 AM 73.4 °F - 73.4 °F 100% 30.04 in 5.0 mi North 4.6 mph - N/A   Light Drizzle
1:00 AM 71.6 °F - 71.6 °F 100% 30.04 in 6.2 mi NW 4.6 mph - N/A   Light Drizzle
2:00 AM 71.6 °F - 71.6 °F 100% 30.01 in 6.2 mi WNW 2.3 mph - N/A   Mostly Cloudy
3:00 AM 71 °F - 71 °F 100% 30.02 in 7 mi NNW 2.3 mph - -   Haze
3:00 AM 71.6 °F - 71.6 °F 100% 30.01 in 6.2 mi NNW 2.3 mph - N/A   Mostly Cloudy
4:00 AM 71.6 °F - 71.6 °F 100% 30.01 in 6.2 mi NNW 2.3 mph - N/A   Mostly Cloudy
5:00 AM 71.6 °F - 71.6 °F 100% 30.01 in 6.2 mi WNW 2.3 mph - N/A   Mostly Cloudy
6:00 AM 72 °F - 72 °F 99% 30.04 in 6 mi NNE 2.3 mph - -   Haze
6:00 AM 71.6 °F - 71.6 °F 100% 30.04 in 6.2 mi NNE 2.3 mph - N/A   Mostly Cloudy
7:00 AM 71.6 °F - 71.6 °F 100% 30.06 in 6.2 mi North 4.6 mph - N/A   Mostly Cloudy
8:00 AM 73.4 °F - 73.4 °F 100% 30.06 in 6.2 mi Calm Calm - N/A   Mostly Cloudy
9:00 AM 76 °F - 75 °F 96% 30.07 in 7 mi Calm Calm - -   Haze
9:00 AM 77.0 °F - 75.2 °F 94% 30.06 in 6.2 mi Calm Calm - N/A   Mostly Cloudy
10:00 AM 78.8 °F - 75.2 °F 89% 30.06 in 6.2 mi Calm Calm - N/A   Mostly Cloudy
11:00 AM 80.6 °F 86.2 °F 75.2 °F 84% 30.06 in 6.2 mi North 4.6 mph - N/A   Mostly Cloudy
12:00 PM 71 °F - 71 °F 100% 29.94 in 6 mi Calm Calm - -   Haze
12:00 PM 82.4 °F 89.5 °F 75.2 °F 79% 30.01 in 6.2 mi North 5.8 mph - N/A   Scattered Clouds
1:00 PM 84.2 °F 92.3 °F 75.2 °F 74% 29.98 in 6.2 mi North 11.5 mph - N/A   Scattered Clouds
2:00 PM 84.2 °F 94.1 °F 77.0 °F 79% 29.95 in 6.2 mi North 13.8 mph - N/A   Scattered Clouds
3:00 PM 84 °F - 74 °F 66% 29.93 in 9 mi North 13.8 mph - -   Haze
3:00 PM 84.2 °F 92.3 °F 75.2 °F 74% 29.92 in 6.2 mi North 13.8 mph - N/A   Scattered Clouds
4:00 PM 82.4 °F 89.5 °F 75.2 °F 79% 29.92 in 6.2 mi North 16.1 mph - N/A   Scattered Clouds
5:00 PM 80.6 °F 86.2 °F 75.2 °F 84% 29.95 in 6.2 mi North 12.7 mph - N/A   Scattered Clouds
6:00 PM 78 °F - 75 °F 87% 29.95 in 7 mi North 11.5 mph - -   Haze
6:00 PM 78.8 °F - 75.2 °F 89% 29.95 in 6.2 mi North 11.5 mph - N/A   Mostly Cloudy
7:00 PM 77.0 °F - 75.2 °F 94% 29.98 in 6.2 mi NNW 6.9 mph - N/A   Mostly Cloudy
8:00 PM 75.2 °F - 75.2 °F 100% 30.01 in 6.2 mi North 8.1 mph - N/A   Mostly Cloudy
9:00 PM 75 °F - 75 °F 99% 30.01 in 6 mi NNW 8.1 mph - -   Haze
9:00 PM 75.2 °F - 75.2 °F 100% 30.01 in 6.2 mi NNW 8.1 mph - N/A   Mostly Cloudy
10:00 PM 75.2 °F - 75.2 °F 100% 30.04 in 6.2 mi NNW 6.9 mph - N/A   Mostly Cloudy
11:00 PM 73.4 °F - 73.4 °F 100% 30.01 in 6.2 mi NNW 4.6 mph - N/A   Mostly Cloudy